Weather in Mragowo

Poland     53°52′06″N   21°18′18″E
temp.,
°C
wind,
m/s
gust,
m/s
humid.,
%
clouds,
%
prec.,
mm/h
press.,
hPa
HPBL,
m
15 june, tue
tue1523:00+12s22770 0.0 101914
02:00+11ssw228543 0.0 101838
05:00+12sw3886100 0.0 1018159
08:00+18wsw4867100 0.0 1017396
11:00+22w4556100 0.0 10171104
14:00+22wnw5565100 0.6 10161173
17:00+16nnw3697100 1.8 1017298
20:00+15nnw378760 1.8 1018342
16 june, wed
wed1623:00+9nnw36905 0.0 101996
02:00+8nnw239435 0.0 101946
05:00+8n229327 0.0 102047
08:00+14ne2268100 0.0 1021345
11:00+19ne2250100 0.0 10211029
14:00+21nne324634 0.0 10201365
17:00+21nne32495 0.0 10201283
20:00+17nne23740 0.0 102164
17 june, thu
thu1723:00+12ese23890 0.0 102237
02:00+11ese22890 0.0 102324
05:00+10ese23870 0.0 102346
08:00+17se35650 0.0 1023450
11:00+22se34450 0.0 10231250
14:00+24se44380 0.0 10221576
17:00+24sse45430 0.0 10221418
20:00+19se22690 0.0 102123
18 june, fri
fri1823:00+15se22810 0.0 102222
02:00+15se35860 0.0 102284
05:00+15se37960 0.0 1022144
08:00+22sse36680 0.0 1022424
11:00+27sse46540 0.0 10211351
14:00+28sse564823 0.0 10201868
17:00+28sse56505 0.0 10191705
20:00+23se37730 0.0 1020200
19 june, sat
sat1923:00+19se310865 0.0 1021250
02:00+17se39835 0.0 1021174
05:00+16se37855 0.0 1021139
08:00+23sse47725 0.0 1021544
11:00+26sse58555 0.0 10201374
14:00+28sse56489 0.0 10192089
17:00+28sse564762 0.0 10181663
20:00+23se510720 0.0 1018465